This demonstration page uses our WeatherBlox Daily Observations layout. Learn more.

Left ArrowRight Arrow

44.31136, -96.79839

Hourly Observations for September 13, 2021

Temp ( °F °C ) Dew Point ( °F °C ) Humidity (%) Winds ( mph kmh ) Pressure ( in mb ) Visibility ( mi km ) Precip ( " mm )
12:56 am 00:56 Clear 54 12.2 47 8.3 77 77 ESE 5 7 30.13 1020 10 16 0.00 0.00
1:56 am 01:56 Clear 54 12.2 46 7.8 75 75 ESE 7 11 30.11 1020 10 16 0.00 0.00
2:56 am 02:56 Clear 50 10 46 7.8 86 86 Calm 30.10 1019 10 16 0.00 0.00
3:56 am 03:56 Clear 51 10.6 46 7.8 83 83 SE 6 9 30.08 1019 10 16 0.00 0.00
4:56 am 04:56 Partly Cloudy 51 10.6 46 7.8 83 83 Calm 30.06 1018 10 16 0.00 0.00
5:56 am 05:56 Clear 50 10 45 7.2 83 83 ESE 7 11 30.04 1017 10 16 0.00 0.00
6:56 am 06:56 Clear 54 12.2 46 7.8 75 75 E 7 11 30.03 1017 10 16 0.00 0.00
7:56 am 07:56 Mostly Sunny 54 12.2 47 8.3 77 77 SE 8 13 30.02 1017 10 16 0.00 0.00
8:56 am 08:56 Mostly Sunny 58 14.4 50 10 75 75 SE 8 13 30.02 1017 8 13 0.00 0.00
9:56 am 09:56 Sunny 64 17.8 52 11.1 65 65 ESE 10 17 29.99 1016 10 16 0.00 0.00
10:13 am 10:13 Mostly Sunny 64 18 52 11 64 64 ESE 14 22 29.91 1013 10 16 0.00 0.00
10:56 am 10:56 Mostly Cloudy 67 19.4 54 12.2 63 63 ESE 10 17 29.98 1015 10 16 0.00 0.00
11:56 am 11:56 Cloudy 68 20 57 13.9 68 68 SSE 5 7 29.98 1015 10 16 0.00 0.00
12:56 pm 12:56 Mostly Cloudy with Light Rain 68 20 58 14.4 70 70 E 7 11 29.94 1014 10 16 0.00 0.00
1:11 pm 13:11 Mostly Cloudy with Light Rain 66 19 59 15 78 78 E 12 19 29.85 1011 10 16 0.00 0.00
1:39 pm 13:39 Mostly Cloudy with Light Rain 66 19 61 16 83 83 WSW 5 7 29.90 1012 10 16 0.00 0.00
1:56 pm 13:56 Cloudy with Light Rain 66 18.9 62 16.7 87 87 W 9 15 29.98 1015 9 14 0.00 0.00
2:40 pm 14:40 Cloudy with Rain 63 17 61 16 94 94 W 8 13 29.90 1012 7 11 0.06 1.52
2:56 pm 14:56 Cloudy with Rain 62 16.7 60 15.6 93 93 ENE 7 11 29.92 1013 5 8 0.10 2.54
3:56 pm 15:56 Cloudy 64 17.8 62 16.7 93 93 E 12 19 29.84 1010 10 16 0.02 0.51
4:56 pm 16:56 Cloudy with Heavy Rain 64 17.8 62 16.7 93 93 W 14 22 29.92 1013 2 3 0.11 2.79
5:05 pm 17:05 Cloudy with Strong Thunderstorms 63 17 63 17 100 100 VRB 5 7 29.83 1010 1 2 0.11 2.79
5:09 pm 17:09 Cloudy with Strong Thunderstorms 63 17 63 17 100 100 E 10 17 29.81 1009 2 2 0.15 3.81
5:16 pm 17:16 Cloudy with Heavy Rain 63 17 63 17 100 100 E 10 17 29.79 1009 2 3 0.20 5.08
5:23 pm 17:23 Cloudy with Nearby Thunderstorms 63 17 63 17 100 100 E 13 20 29.78 1008 3 5 0.21 5.33
5:44 pm 17:44 Cloudy with Light Rain 64 18 63 17 94 94 E 12 19 29.75 1007 8 13 0.22 5.59
5:56 pm 17:56 Cloudy with Light Rain 64 17.8 62 16.7 93 93 E 9 15 29.83 1010 10 16 0.22 5.59
6:42 pm 18:42 Cloudy 63 17 61 16 94 94 ESE 5 7 29.75 1007 10 16 0.00 0.00
6:56 pm 18:56 Cloudy 63 17.2 62 16.7 97 97 Calm 29.81 1010 10 16 0.00 0.00
7:12 pm 19:12 Cloudy 64 18 63 17 94 94 SSE 3 6 29.73 1007 10 16 0.00 0.00
7:24 pm 19:24 Cloudy 64 18 63 17 94 94 S 5 7 29.73 1007 10 16 0.00 0.00
7:38 pm 19:38 Cloudy with Heavy Rain 63 17 59 15 88 88 W 15 24 29.79 1009 2 3 0.15 3.81
7:43 pm 19:43 Cloudy with Heavy Rain 61 16 59 15 94 94 W 16 26 29.79 1009 2 3 0.24 6.10
7:46 pm 19:46 Cloudy with Rain 61 16 59 15 94 94 W 13 20 29.79 1009 2 3 0.26 6.60
7:51 pm 19:51 Cloudy with Rain 61 16 59 15 94 94 W 21 33 29.78 1009 3 5 0.28 7.11
7:53 pm 19:53 Cloudy with Rain 61 16 59 15 94 94 W 18 30 29.78 1009 3 4 0.29 7.37
7:56 pm 19:56 Cloudy with Rain 60 15.6 58 14.4 93 93 W 16 26 29.84 1011 3 4 0.31 7.87
7:59 pm 19:59 Cloudy with Heavy Rain 61 16 57 14 88 88 WNW 13 20 29.78 1009 3 5 0.02 0.51
8:23 pm 20:23 Cloudy with Nearby Thunderstorms 61 16 57 14 88 88 W 9 15 29.79 1009 9 14 0.06 1.52
8:38 pm 20:38 Partly Cloudy 61 16 57 14 88 88 WNW 13 20 29.80 1009 10 16 0.06 1.52
8:56 pm 20:56 Clear 60 15.6 58 14.4 93 93 WNW 13 20 29.87 1012 10 16 0.06 1.52
9:13 pm 21:13 Partly Cloudy 61 16 57 14 88 88 NW 12 19 29.82 1010 10 16 0.00 0.00
9:21 pm 21:21 Mostly Cloudy 61 16 57 14 88 88 NNW 9 15 29.81 1010 10 16 0.00 0.00
9:39 pm 21:39 Partly Cloudy 57 14 57 14 100 100 NW 8 13 29.83 1010 10 16 0.00 0.00
9:56 pm 21:56 Mostly Cloudy 58 14.4 57 13.9 97 97 WNW 5 7 29.88 1012 10 16 0.00 0.00
10:07 pm 22:07 Partly Cloudy 57 14 55 13 94 94 WNW 5 7 29.84 1010 10 16 0.00 0.00
10:51 pm 22:51 Clear with Mist and Fog 57 14 55 13 94 94 W 3 6 29.83 1010 2 2 0.00 0.00
10:56 pm 22:56 Clear with Mist and Fog 57 13.9 56 13.3 96 96 Calm 29.87 1012 1 2 0.00 0.00
10:58 pm 22:58 Clear with Mist and Fog 57 14 55 13 94 94 Calm 29.83 1010 1 1 0.00 0.00
11:07 pm 23:07 Clear with Fog 55 13 55 13 100 100 Calm 29.83 1010 1 1 0.00 0.00
11:13 pm 23:13 Mostly Clear with Mist and Fog 55 13 55 13 100 100 Calm 29.83 1010 1 2 0.00 0.00
11:30 pm 23:30 Partly Cloudy with Mist and Fog 55 13 55 13 100 100 NW 3 6 29.83 1010 1 1 0.00 0.00
11:39 pm 23:39 Mostly Cloudy with Fog 55 13 55 13 100 100 Calm 29.83 1010 1 1 0.00 0.00
11:50 pm 23:50 Mostly Cloudy with Mist and Fog 55 13 55 13 100 100 NNW 3 6 29.83 1010 1 1 0.00 0.00
11:56 pm 23:56 Mostly Cloudy with Fog 55 12.8 55 12.8 100 100 Calm 29.86 1011 1 1 0.00 0.00

Powered by AerisWeather